Tracking 29892 objects as of 21-Nov-2024
HD Live streaming from Space Station
objects crossing your sky now

DELTA 1 DEB

Track DELTA 1 DEB now!
10-day predictions


NORAD ID: 14910
Int'l Code: 1978-026GK
Perigee: 805.7 km
Apogee: 830.2 km
Inclination: 99.0 °
Period: 101.1 minutes
Semi major axis: 7188 km
RCS: 0.0221 m2 (small)
Launch date: March 5, 1978
Source: United States (US)
Launch site: AIR FORCE WESTERN TEST RANGE (AFWTR)

Note: This is SATELLITE DEBRIS
Your satellite tracking list
Your tracking list is empty




NASA's NSSDC Master Catalog

Two Line Element Set (TLE):
1 14910U 78026GK  24325.54239299  .00003250  00000-0  14253-2 0  9994
2 14910  99.0497 274.0118 0017031   2.6552  58.9053 14.24298149109879
Source of the keplerian elements: AFSPC